Change the Weather History Date:

Tuesday, September 10, 2013

  Actual Average Record
Temperature  
Mean Temperature 70 °F -  
Max Temperature 80 °F 78 °F 98 °F (2012)
Min Temperature 62 °F 52 °F 44 °F (1999)
Cooling Degree Days 6    
Growing Degree Days 20 (Base 50)    
Moisture  
Dew Point 63 °F    
Average Humidity 81    
Maximum Humidity 99    
Minimum Humidity 50    
Precipitation  
Precipitation 0.03 in - - ()
Sea Level Pressure  
Sea Level Pressure 30.06 in    
Wind  
Wind Speed 4 mph (NW)    
Max Wind Speed 9 mph    
Max Gust Speed -    
Visibility 10 miles    
Events Rain , Thunderstorm    
Averages and records for this station are not official NWS values.
T = Trace of Precipitation, MM = Missing Value Source: NWS Daily Summary

Daily Weather History Graph

Daily Weather History Graph

Search for Another Location

Airport or City:

Trip Planner

Search our weather history database for the weather conditions in past years. The results will help you decide how hot, cold, wet, or windy it might be!

Date:

Astronomy

Sep. 10, 2013 Rise Set
Actual Time 7:14 AM CDT 7:58 PM CDT
Civil Twilight 6:46 AM CDT 8:26 PM CDT
Nautical Twilight 6:12 AM CDT 9:00 PM CDT
Astronomical Twilight 5:37 AM CDT 9:35 PM CDT
Moon 12:50 PM CDT (9/10) 10:54 PM CDT (9/10)
Length of Visible Light 13h 40m
Length of Day
12h 43m
Waxing Crescent, 28% of the Moon is Illuminated
Sep 10
Waxing Crescent
Sep 12
First Quarter
Sep 19
Full
Sep 26
Last Quarter
Oct 4
New

Hourly Weather History & Observations

Time (CDT) Temp. Dew Point Humidity Pressure Visibility Wind Dir Wind Speed Gust Speed Precip Events Conditions
12:15 AM 70.9 °F 61.9 °F 73% 29.96 in 10.0 mi Calm Calm - N/A   Overcast
12:35 AM 69.8 °F 62.6 °F 78% 29.96 in 10.0 mi NE 4.6 mph - N/A   Overcast
12:55 AM 70.2 °F 62.8 °F 77% 29.97 in 10.0 mi Calm Calm - N/A   Mostly Cloudy
1:15 AM 68.9 °F 64.4 °F 86% 30.01 in 10.0 mi SW 5.8 mph - N/A Rain , Thunderstorm Light Thunderstorms and Rain
1:35 AM 68.9 °F 64.9 °F 87% 30.01 in 10.0 mi WNW 5.8 mph - N/A Rain Light Rain
1:55 AM 68.9 °F 64.2 °F 85% 30.01 in 10.0 mi NNW 4.6 mph - N/A   Overcast
2:15 AM 68.4 °F 64.0 °F 86% 30.01 in 10.0 mi NW 8.1 mph - N/A   Mostly Cloudy
2:35 AM 68.2 °F 64.4 °F 88% 30.01 in 10.0 mi NW 3.5 mph - N/A   Mostly Cloudy
2:55 AM 67.5 °F 63.9 °F 88% 29.99 in 10.0 mi NW 5.8 mph - N/A   Overcast
3:15 AM 67.3 °F 63.7 °F 88% 30.01 in 10.0 mi WNW 5.8 mph - N/A   Overcast
3:35 AM 66.7 °F 63.5 °F 89% 30.01 in 10.0 mi NW 5.8 mph - N/A   Overcast
3:55 AM 66.0 °F 63.7 °F 92% 30.02 in 10.0 mi West 8.1 mph - N/A Rain Light Rain
4:15 AM 64.8 °F 63.5 °F 96% 30.02 in 10.0 mi WNW 3.5 mph - N/A Rain Rain
4:35 AM 64.0 °F 63.1 °F 97% 29.98 in 7.0 mi NNE 5.8 mph - 0.02 in Rain Rain
4:55 AM 63.9 °F 63.3 °F 98% 29.99 in 10.0 mi NNW 5.8 mph - 0.02 in Rain Light Rain
5:15 AM 63.5 °F 63.1 °F 99% 29.98 in 10.0 mi North 4.6 mph - N/A   Light Drizzle
5:35 AM 63.7 °F 63.5 °F 99% 29.98 in 10.0 mi NNW 4.6 mph - N/A   Scattered Clouds
5:55 AM 63.5 °F 63.0 °F 98% 29.99 in 10.0 mi North 4.6 mph - N/A   Clear
6:15 AM 63.3 °F 63.0 °F 99% 29.99 in 10.0 mi NNW 3.5 mph - N/A   Clear
6:35 AM 62.8 °F 62.2 °F 98% 29.99 in 10.0 mi Calm Calm - N/A   Clear
6:55 AM 62.6 °F 62.2 °F 99% 29.99 in 10.0 mi Calm Calm - N/A   Clear
7:15 AM 62.6 °F 62.1 °F 98% 29.99 in 5.0 mi North 3.5 mph - N/A   Clear
7:35 AM 63.0 °F 62.6 °F 99% 30.01 in 10.0 mi Calm Calm - N/A   Clear
7:55 AM 63.5 °F 63.0 °F 98% 30.02 in 7.0 mi Calm Calm - N/A   Clear
8:15 AM 63.9 °F 63.1 °F 97% 30.02 in 10.0 mi WSW 3.5 mph - N/A   Clear
8:35 AM 64.4 °F 63.5 °F 97% 30.03 in 10.0 mi Calm Calm - N/A   Clear
8:55 AM 64.6 °F 63.5 °F 96% 30.03 in 10.0 mi Calm Calm - N/A   Clear
9:15 AM 64.8 °F 63.1 °F 94% 30.05 in 10.0 mi Calm Calm - N/A Rain Light Rain
9:35 AM 65.3 °F 64.0 °F 96% 30.07 in 7.0 mi WNW 5.8 mph - N/A   Clear
9:55 AM 65.8 °F 64.2 °F 94% 30.07 in 10.0 mi WNW 4.6 mph - N/A   Clear
10:15 AM 66.6 °F 64.2 °F 92% 30.07 in 10.0 mi WNW 3.5 mph - N/A   Clear
10:35 AM 67.1 °F 64.4 °F 91% 30.08 in 10.0 mi West 4.6 mph - N/A   Clear
10:55 AM 68.0 °F 64.0 °F 87% 30.08 in 10.0 mi West 6.9 mph - N/A   Clear
11:15 AM 68.2 °F 63.7 °F 85% 30.08 in 10.0 mi WNW 4.6 mph - N/A   Clear
11:35 AM 68.9 °F 64.0 °F 84% 30.08 in 10.0 mi NW 4.6 mph - 0.01 in   Clear
11:55 AM 70.3 °F 63.9 °F 80% 30.08 in 10.0 mi NW 4.6 mph - 0.01 in   Clear
12:15 PM 72.1 °F 63.5 °F 74% 30.08 in 10.0 mi NW 4.6 mph - N/A   Clear
12:35 PM 73.8 °F 62.1 °F 67% 30.08 in 10.0 mi NW 5.8 mph - N/A   Clear
12:55 PM 72.5 °F 62.1 °F 70% 30.09 in 10.0 mi NW 5.8 mph - N/A   Scattered Clouds
1:15 PM 74.7 °F 62.1 °F 65% 30.09 in 10.0 mi NW 5.8 mph - N/A   Clear
1:35 PM 76.1 °F 61.0 °F 59% 30.08 in 10.0 mi NNW 6.9 mph - N/A   Clear
1:55 PM 77.7 °F 60.1 °F 54% 30.08 in 10.0 mi NNW 9.2 mph - N/A   Clear
2:15 PM 78.8 °F 58.6 °F 50% 30.08 in 10.0 mi North 5.8 mph - N/A   Scattered Clouds
2:35 PM 78.6 °F 59.7 °F 52% 30.08 in 10.0 mi WNW 4.6 mph - N/A   Scattered Clouds
2:55 PM 79.5 °F 59.9 °F 51% 30.08 in 10.0 mi NNW 8.1 mph - N/A   Mostly Cloudy
3:15 PM 78.8 °F 59.2 °F 51% 30.08 in 10.0 mi North 9.2 mph - N/A   Scattered Clouds
3:35 PM 77.4 °F 59.0 °F 53% 30.08 in 10.0 mi North 8.1 mph - N/A   Mostly Cloudy
3:55 PM 76.6 °F 59.4 °F 55% 30.08 in 10.0 mi NNW 8.1 mph - N/A   Overcast
4:15 PM 76.1 °F 60.6 °F 59% 30.08 in 10.0 mi North 6.9 mph - N/A   Overcast
4:35 PM 75.2 °F 61.3 °F 62% 30.08 in 10.0 mi North 3.5 mph - N/A   Overcast
4:55 PM 74.8 °F 62.2 °F 65% 30.08 in 10.0 mi NNE 3.5 mph - N/A   Overcast
5:15 PM 74.8 °F 61.9 °F 64% 30.08 in 10.0 mi North 4.6 mph - N/A   Overcast
5:35 PM 73.6 °F 61.3 °F 65% 30.08 in 10.0 mi North 6.9 mph - N/A   Overcast
5:55 PM 72.9 °F 61.7 °F 68% 30.09 in 10.0 mi North 4.6 mph - N/A   Overcast
6:15 PM 72.7 °F 61.9 °F 69% 30.09 in 10.0 mi North 4.6 mph - N/A   Overcast
6:35 PM 72.5 °F 62.1 °F 70% 30.09 in 10.0 mi Calm Calm - N/A   Overcast
6:55 PM 72.1 °F 63.0 °F 73% 30.09 in 10.0 mi Calm Calm - N/A   Overcast
7:15 PM 72.5 °F 62.6 °F 71% 30.09 in 10.0 mi Calm Calm - N/A   Overcast
7:35 PM 72.1 °F 61.7 °F 70% 30.09 in 10.0 mi Calm Calm - N/A   Scattered Clouds
7:55 PM 71.6 °F 63.5 °F 76% 30.09 in 10.0 mi Calm Calm - N/A   Mostly Cloudy
8:15 PM 70.0 °F 64.0 °F 81% 30.10 in 10.0 mi Calm Calm - N/A   Scattered Clouds
8:35 PM 66.6 °F 64.0 °F 92% 30.10 in 10.0 mi South 3.5 mph - N/A   Scattered Clouds
8:55 PM 66.4 °F 63.1 °F 89% 30.10 in 10.0 mi South 4.6 mph - N/A   Scattered Clouds
9:15 PM 66.6 °F 63.3 °F 89% 30.11 in 10.0 mi South 3.5 mph - N/A   Scattered Clouds
9:35 PM 67.3 °F 63.1 °F 87% 30.12 in 10.0 mi Calm Calm - N/A   Clear
9:55 PM 67.1 °F 62.6 °F 85% 30.12 in 10.0 mi Calm Calm - N/A   Clear
10:15 PM 67.1 °F 62.6 °F 85% 30.13 in 10.0 mi Calm Calm - N/A   Clear
10:35 PM 67.3 °F 62.8 °F 85% 30.14 in 10.0 mi Calm Calm - N/A   Scattered Clouds
10:55 PM 66.9 °F 62.8 °F 87% 30.14 in 10.0 mi Calm Calm - N/A   Mostly Cloudy
11:15 PM 66.7 °F 63.5 °F 89% 30.15 in 10.0 mi Calm Calm - N/A   Mostly Cloudy
11:35 PM 66.2 °F 63.5 °F 91% 30.15 in 10.0 mi Calm Calm - N/A   Overcast
11:55 PM 66.7 °F 63.5 °F 89% 30.14 in 10.0 mi Calm Calm - N/A   Scattered Clouds